Weather History for Moorhead, MN

Change the Weather History Date:

Wednesday, October 26, 2011

  Actual Average (KFAR) Record (KFAR)
Temperature  
Mean Temperature 44 °F 41 °F  
Max Temperature 50 °F 51 °F 79 °F (1989)
Min Temperature 37 °F 31 °F -4 °F (1919)
Degree Days  
Heating Degree Days 22 24  
Month to date heating degree days 478  
Since 1 July heating degree days 748  
Cooling Degree Days 0 0  
Month to date cooling degree days 0  
Year to date cooling degree days 548  
Moisture  
Dew Point 38 °F    
Average Humidity 80    
Maximum Humidity 93    
Minimum Humidity 54    
Precipitation  
Precipitation 0.00 in 0.06 in 1.21 in (2010)
Month to date precipitation 1.91  
Year to date precipitation 20.54  
Snow  
Snow 0.00 in 0.00 in 1.40 in (2008)
Month to date snowfall 0.4  
Since 1 July snowfall 0.4  
Since 1 September snowfall 0.4  
Snow Depth -    
Sea Level Pressure  
Sea Level Pressure 30.07 in    
Wind  
Wind Speed 4 mph (NW)    
Max Wind Speed 10 mph    
Max Gust Speed -    
Visibility 10 miles    
Events      
T = Trace of Precipitation, MM = Missing Value Source: NWS Daily Summary

Daily Weather History Graph

Daily Weather History Graph

Search for Another Location

Airport:

Trip Planner

Search our weather history database for the weather conditions in past years. The results will help you decide how hot, cold, wet, or windy it might be!

Date:

Astronomy

Oct. 26, 2011 Rise Set
Actual Time 7:59 AM CDT 6:20 PM CDT
Civil Twilight 7:28 AM CDT 6:51 PM CDT
Nautical Twilight 6:53 AM CDT 7:27 PM CDT
Astronomical Twilight 6:17 AM CDT 8:02 PM CDT
Moon 7:52 AM CDT (10/26) 5:58 PM CDT (10/26)
Length of Visible Light 11h 23m
Length of Day
10h 20m
Waning Crescent, 0% of the Moon is Illuminated
Oct 26
Waning Crescent
Oct 26
New
Nov 2
First Quarter
Nov 10
Full
Nov 18
Last Quarter

Hourly Weather History & Observations

Time (CDT) Temp. Windchill Dew Point Humidity Pressure Visibility Wind Dir Wind Speed Gust Speed Precip Events Conditions
12:13 AM 44.6 °F 42.2 °F 39.2 °F 81% 30.04 in 10.0 mi NW 4.6 mph - N/A   Overcast
12:34 AM 44.6 °F - 39.2 °F 81% 30.05 in 10.0 mi Calm Calm - N/A   Overcast
12:54 AM 44.6 °F - 39.2 °F 81% 30.04 in 10.0 mi Calm Calm - N/A   Overcast
1:14 AM 44.6 °F - 41.0 °F 87% 30.04 in 10.0 mi Calm Calm - N/A   Overcast
1:34 AM 44.6 °F - 39.2 °F 81% 30.04 in 10.0 mi Calm Calm - N/A   Overcast
1:54 AM 44.6 °F 42.2 °F 41.0 °F 87% 30.04 in 10.0 mi NNW 4.6 mph - N/A   Overcast
2:13 AM 44.6 °F 43.1 °F 41.0 °F 87% 30.05 in 10.0 mi NNW 3.5 mph - N/A   Overcast
2:34 AM 44.6 °F - 41.0 °F 87% 30.05 in 10.0 mi Calm Calm - N/A   Overcast
3:13 AM 44.6 °F - 39.2 °F 81% 30.06 in 10.0 mi Calm Calm - N/A   Overcast
3:34 AM 44.6 °F 42.2 °F 39.2 °F 81% 30.06 in 10.0 mi NNW 4.6 mph - N/A   Overcast
3:54 AM 44.6 °F 42.2 °F 39.2 °F 81% 30.06 in 10.0 mi NNE 4.6 mph - N/A   Overcast
4:14 AM 44.6 °F 42.2 °F 39.2 °F 81% 30.06 in 10.0 mi NE 4.6 mph - N/A   Overcast
4:34 AM 44.6 °F 41.4 °F 39.2 °F 81% 30.06 in 10.0 mi North 5.8 mph - N/A   Overcast
4:54 AM 42.8 °F 39.3 °F 39.2 °F 87% 30.07 in 10.0 mi North 5.8 mph - N/A   Overcast
5:14 AM 42.8 °F 40.1 °F 39.2 °F 87% 30.08 in 10.0 mi North 4.6 mph - N/A   Overcast
6:14 AM 39.2 °F 35.9 °F 35.6 °F 87% 30.09 in 10.0 mi North 4.6 mph - N/A   Scattered Clouds
6:33 AM 37.4 °F 31.4 °F 35.6 °F 93% 30.10 in 10.0 mi NNW 8.1 mph - N/A   Clear
6:54 AM 37.4 °F 32.1 °F 33.8 °F 87% 30.10 in 10.0 mi NNW 6.9 mph - N/A   Clear
7:14 AM 37.4 °F 32.1 °F 35.6 °F 93% 30.10 in 10.0 mi North 6.9 mph - N/A   Clear
7:33 AM 37.4 °F 30.8 °F 35.6 °F 93% 30.10 in 10.0 mi North 9.2 mph - N/A   Clear
8:14 AM 37.4 °F 32.1 °F 35.6 °F 93% 30.12 in 10.0 mi North 6.9 mph - N/A   Mostly Cloudy
8:33 AM 39.2 °F 33.6 °F 35.6 °F 87% 30.12 in 10.0 mi North 8.1 mph - N/A   Overcast
8:54 AM 39.2 °F 33.6 °F 35.6 °F 87% 30.13 in 10.0 mi North 8.1 mph - N/A   Overcast
9:33 AM 41.0 °F 36.4 °F 37.4 °F 87% 30.12 in 10.0 mi North 6.9 mph - N/A   Mostly Cloudy
10:14 AM 44.6 °F 39.7 °F 39.2 °F 81% 30.14 in 10.0 mi North 9.2 mph - N/A   Overcast
10:54 AM 44.6 °F 39.2 °F 37.4 °F 76% 30.14 in 10.0 mi North 10.4 mph - N/A   Mostly Cloudy
11:13 AM 44.6 °F 40.7 °F 37.4 °F 76% 30.14 in 10.0 mi NNW 6.9 mph - N/A   Scattered Clouds
11:34 AM 46.4 °F 45.2 °F 39.2 °F 76% 30.14 in 10.0 mi NW 3.5 mph - N/A   Scattered Clouds
11:54 AM 46.4 °F 44.3 °F 39.2 °F 76% 30.13 in 10.0 mi NNW 4.6 mph - N/A   Scattered Clouds
12:13 PM 46.4 °F 43.5 °F 39.2 °F 76% 30.14 in 10.0 mi WNW 5.8 mph - N/A   Scattered Clouds
12:34 PM 48.2 °F - 39.2 °F 71% 30.14 in 10.0 mi WNW 6.9 mph - N/A   Scattered Clouds
12:54 PM 48.2 °F - 39.2 °F 71% 30.13 in 10.0 mi NW 8.1 mph - N/A   Scattered Clouds
1:13 PM 48.2 °F - 37.4 °F 66% 30.12 in 10.0 mi NW 4.6 mph - N/A   Scattered Clouds
1:34 PM 50.0 °F - 37.4 °F 62% 30.11 in 10.0 mi WSW 8.1 mph - N/A   Scattered Clouds
1:54 PM 48.2 °F - 35.6 °F 62% 30.10 in 10.0 mi WNW 5.8 mph - N/A   Mostly Cloudy
2:13 PM 46.4 °F 41.9 °F 37.4 °F 71% 30.10 in 10.0 mi WSW 9.2 mph - N/A   Light Drizzle
2:34 PM 48.2 °F - 39.2 °F 71% 30.08 in 10.0 mi SW 6.9 mph - N/A   Scattered Clouds
2:54 PM 48.2 °F - 39.2 °F 71% 30.08 in 10.0 mi South 5.8 mph - N/A   Scattered Clouds
3:14 PM 48.2 °F - 39.2 °F 71% 30.07 in 10.0 mi SSW 4.6 mph - N/A   Scattered Clouds
3:34 PM 48.2 °F - 37.4 °F 66% 30.06 in 10.0 mi SW 4.6 mph - N/A   Clear
3:53 PM 50.0 °F - 35.6 °F 58% 30.05 in 10.0 mi WSW 4.6 mph - N/A   Scattered Clouds
4:14 PM 50.0 °F - 33.8 °F 54% 30.05 in 10.0 mi WNW 3.5 mph - N/A   Scattered Clouds
4:34 PM 50.0 °F - 35.6 °F 58% 30.04 in 10.0 mi WNW 4.6 mph - N/A   Mostly Cloudy
4:54 PM 50.0 °F - 37.4 °F 62% 30.04 in 10.0 mi WNW 4.6 mph - N/A   Overcast
5:14 PM 48.2 °F - 37.4 °F 66% 30.04 in 10.0 mi NNE 8.1 mph - N/A   Mostly Cloudy
5:34 PM 48.2 °F - 35.6 °F 62% 30.04 in 10.0 mi Calm Calm - N/A   Scattered Clouds
5:54 PM 46.4 °F 45.2 °F 37.4 °F 71% 30.03 in 10.0 mi ESE 3.5 mph - N/A   Scattered Clouds
6:14 PM 44.6 °F 40.2 °F 37.4 °F 76% 30.03 in 10.0 mi SE 8.1 mph - N/A   Clear
6:54 PM 41.0 °F 38.0 °F 37.4 °F 87% 30.05 in 10.0 mi ESE 4.6 mph - N/A   Scattered Clouds
7:14 PM 39.2 °F 34.2 °F 37.4 °F 93% 30.04 in 10.0 mi SE 6.9 mph - N/A   Scattered Clouds
7:34 PM 39.2 °F 37.0 °F 37.4 °F 93% 30.04 in 10.0 mi SE 3.5 mph - N/A   Mostly Cloudy
7:54 PM 39.2 °F 37.0 °F 37.4 °F 93% 30.04 in 10.0 mi SE 3.5 mph - N/A   Scattered Clouds
8:14 PM 39.2 °F 37.0 °F 37.4 °F 93% 30.04 in 10.0 mi South 3.5 mph - N/A   Mostly Cloudy
8:33 PM 39.2 °F 37.0 °F 37.4 °F 93% 30.04 in 10.0 mi South 3.5 mph - N/A   Overcast
8:54 PM 37.4 °F 34.9 °F 35.6 °F 93% 30.04 in 10.0 mi SSW 3.5 mph - N/A   Mostly Cloudy
9:14 PM 37.4 °F 33.8 °F 35.6 °F 93% 30.04 in 10.0 mi SW 4.6 mph - N/A   Clear
9:33 PM 37.4 °F 33.8 °F 35.6 °F 93% 30.04 in 10.0 mi SW 4.6 mph - N/A   Scattered Clouds
9:54 PM 37.4 °F 32.8 °F 35.6 °F 93% 30.04 in 10.0 mi WSW 5.8 mph - N/A   Scattered Clouds
10:14 PM 35.6 °F 29.9 °F 33.8 °F 93% 30.04 in 10.0 mi West 6.9 mph - N/A   Clear
10:34 PM 37.4 °F 32.1 °F 33.8 °F 87% 30.04 in 10.0 mi West 6.9 mph - N/A   Clear
11:14 PM 35.6 °F 31.7 °F 32.0 °F 87% 30.04 in 10.0 mi WNW 4.6 mph - N/A   Scattered Clouds
11:34 PM 33.8 °F 30.8 °F 30.2 °F 87% 30.04 in 10.0 mi NW 3.5 mph - N/A   Clear
11:54 PM 32.0 °F 25.6 °F 30.2 °F 93% 30.04 in 10.0 mi NW 6.9 mph - N/A   Scattered Clouds